This is the latest recevied weather packets stored in our database for station/object N0HOT. If no packets are shown the sender has not sent any weather packets the latest 10 day(s).
| Time | Temp. | Humidity | Pressure | Rain* | Wind** | Luminosity | Snow |
|---|---|---|---|---|---|---|---|
| 1788295642 | 32.78° C | 43% | 1012.8 hPa | 0 mm | - | 498 W/m² | - |
| 1788295315 | 32.22° C | 47% | 1012.8 hPa | 0 mm | - | 485 W/m² | - |
| 1788295015 | 31.67° C | 49% | 1012.8 hPa | 0 mm | - | 547 W/m² | - |
| 1788294710 | 31.67° C | 48% | 1012.8 hPa | 0 mm | - | 532 W/m² | - |
| 1788294409 | 31.11° C | 52% | 1012.5 hPa | 0 mm | - | 304 W/m² | - |
| 1788294105 | 30.56° C | 49% | 1012.8 hPa | 0 mm | - | 471 W/m² | - |
| 1788293801 | 30° C | 55% | 1012.8 hPa | 0 mm | - | 639 W/m² | - |
| 1788293500 | 30° C | 56% | 1012.8 hPa | 0 mm | - | 567 W/m² | - |
| 1788293200 | 30° C | 55% | 1012.5 hPa | 0 mm | - | 311 W/m² | - |
| 1788292895 | 30.56° C | 55% | 1012.8 hPa | 0 mm | - | 186 W/m² | - |
| 1788292593 | 30.56° C | 55% | 1012.8 hPa | 0 mm | - | 145 W/m² | - |
| 1788292292 | 30.56° C | 54% | 1013.2 hPa | 0 mm | - | 118 W/m² | - |
| 1788291988 | 31.11° C | 54% | 1013.2 hPa | 0 mm | - | 106 W/m² | - |
| 1788291683 | 31.67° C | 57% | 1013.6 hPa | 0 mm | - | 92 W/m² | - |
| 1788291379 | 31.67° C | 54% | 1013.6 hPa | 0 mm | - | 129 W/m² | - |
| 1788291079 | 31.67° C | 51% | 1013.2 hPa | 0 mm | - | 147 W/m² | - |
| 1788290774 | 31.67° C | 54% | 1013.2 hPa | 0 mm | - | 182 W/m² | - |
| 1788290486 | 32.22° C | 54% | 1013.6 hPa | 0 mm | - | 199 W/m² | - |
| 1788290165 | 32.22° C | 52% | 1013.6 hPa | 0 mm | - | 209 W/m² | - |
| 1788289861 | 32.22° C | 49% | 1013.6 hPa | 0 mm | - | 251 W/m² | - |
| 1788289556 | 32.22° C | 51% | 1013.6 hPa | 0 mm | - | 320 W/m² | - |
| 1788289255 | 32.22° C | 49% | 1013.6 hPa | 0 mm | - | 316 W/m² | - |
| 1788288954 | 31.67° C | 48% | 1013.2 hPa | 0 mm | - | 328 W/m² | - |
| 1788288653 | 31.67° C | 46% | 1013.6 hPa | 0 mm | - | 399 W/m² | - |
| 1788288349 | 31.67° C | 47% | 1013.6 hPa | 0 mm | - | 353 W/m² | - |
* Rain latest hour (hover to see other rain measurements)
** Current wind speed in m/s (hover to see current wind gust speed)